Station OSGN6 - 9052030 - Oswego, NY Image indicating link to RSS feed of recent meteorological observations for station OSGN6


Conditions at OSGN6 as of
(7:30 pm EDT)
2330 GMT on 05/22/2024:
     

Click on the graph icon in the table below to see a time series plot of the last five days of that observation.

5-day plot - Wind Direction Wind Direction (WDIR):SSE ( 160 deg true )
5-day plot - Wind Speed Wind Speed (WSPD):3.1 m/s
5-day plot - Wind Gust Wind Gust (GST):4.1 m/s
5-day plot - Atmospheric Pressure Atmospheric Pressure (PRES):1007.3 mb
5-day plot - Air Temperature Air Temperature (ATMP): 22.1 °C
5-day plot - Dew Point Dew Point (DEWP): 18.8 °C
5-day plot - Wind Speed at 10 Meters Wind Speed at 10 meters (WSPD10M): 3 m/s
5-day plot - Wind Speed at 20 Meters Wind Speed at 20 meters (WSPD20M): 3 m/s
5-day plot -  Wind Speed, Wind Gust and Atmospheric Pressure Combined plot of Wind Speed, Gust, and Air Pressure
NOS Water Level Observation Network Water Level
Previous observations
TIME
(EDT)
5-day plot - Wind Direction
WDIR
 
5-day plot - Wind Speed
WSPD
m/s
5-day plot - Wind Gust
GST
m/s
5-day plot - Wave Height
WVHT
m
5-day plot - Dominant Wave Period
DPD
sec
5-day plot - Average Wave Period
APD
sec
5-day plot - Mean Wave Direction
MWD
 
5-day plot - Atmospheric Pressure
PRES
mb
5-day plot - Pressure Tendency
PTDY
mb
5-day plot - Air Temperature
ATMP
°C
5-day plot - Water Temperature
WTMP
°C
5-day plot - Dew Point
DEWP
°C
5-day plot - Salinity
SAL
psu
5-day plot - Visibility
VIS
km
5-day plot - Tide (above MLLW)
TIDE
m
2024-05-22 07:24 pm S 3.1 4.1----1007.3- 22.1- 18.7---
2024-05-22 07:18 pmSSE 2.6 4.1----1007.3- 22.3- 18.6---
2024-05-22 07:12 pmSSE 2.6 3.1----1007.3- 22.2- 18.8---
2024-05-22 07:06 pmSSE 2.1 3.1----1007.3- 22.2- 18.8---
2024-05-22 07:00 pmSSE 2.6 4.1----1007.4 +1.3 22.4- 18.8---
2024-05-22 06:54 pmSSE 2.6 3.1----1007.2- 22.3- 19.0---
2024-05-22 06:48 pm SE 2.1 3.1----1007.3-------
2024-05-22 06:42 pm E 1.5 2.6----1007.1-------
2024-05-22 06:36 pm SW 1.5 4.1----1007.1-------
2024-05-22 06:30 pmNNW 2.6 5.1----1007.3- 20.1- 18.1---
2024-05-22 06:24 pm W 2.6 5.1----1007.4- 22.2- 21.2---
2024-05-22 06:18 pm SW 3.6 4.6----1007.4- 22.6- 22.3---
2024-05-22 06:12 pmWSW 3.6 5.1----1007.2- 22.5- 22.1---
2024-05-22 06:06 pm SW 2.6 5.7----1007.3- 22.3- 21.4---
2024-05-22 06:00 pm-------1007.2 +0.6 22.0- 20.7---
2024-05-22 05:54 pm-------1006.5- 22.2- 20.5---
2024-05-22 05:48 pm S 2.1 3.1----1006.3-------
2024-05-22 05:42 pm SE 1.5 4.1----1006.1-------
2024-05-22 05:36 pm S 3.6 6.2----1006.2-------
2024-05-22 05:30 pmSSE 3.6 7.7----1006.4- 22.4- 20.2---
2024-05-22 05:24 pm S 5.1 6.7----1006.5- 21.7- 20.1---
2024-05-22 05:18 pmSSE 4.6 7.2----1006.3- 22.0- 20.1---
2024-05-22 05:12 pmSSE 2.6 5.7----1006.5- 21.8- 20.1---
2024-05-22 05:06 pm SE 1.5 5.7----1006.4- 20.5- 20.1---
2024-05-22 05:00 pm S 5.1 9.3----1006.6- 20.1- 19.7---
2024-05-22 04:54 pm SE 4.6 13.4----1006.5- 19.5- 19.2---
2024-05-22 04:48 pmESE 8.8 26.3----1006.2- 19.1- 18.7---
2024-05-22 04:42 pmSSW 16.0 23.2----1006.7- 20.2- 19.4---
2024-05-22 04:36 pm NE 1.5 4.1----1005.9- 22.4- 17.0---
2024-05-22 04:30 pm NE 1.0 2.6----1005.3- 26.7- 18.3---
2024-05-22 04:24 pm NE 1.0 3.1----1005.5- 27.0- 18.3---
2024-05-22 04:18 pmNNE 3.1 3.6----1005.6- 25.7- 18.1---
2024-05-22 04:12 pm NE 2.1 3.1----1005.7- 28.5- 17.9---
2024-05-22 04:06 pmNNE 1.0 2.6----1005.8- 29.7- 17.9---
2024-05-22 04:00 pm- 0.0 0.0----1006.1 -1.3 28.6- 17.8---
2024-05-22 03:54 pm- 0.0 0.0----1006.3- 29.8- 17.6---
2024-05-22 03:48 pm- 0.0 0.0----1006.4- 30.3- 17.9---
2024-05-22 03:42 pm- 0.0 0.0----1006.5- 29.5- 19.0---
2024-05-22 03:36 pm- 0.0 2.6----1006.6- 27.6- 17.5---
2024-05-22 03:30 pm NE 0.5 3.1----1006.4- 26.4- 17.1---
2024-05-22 03:24 pm NE 2.1 3.1----1006.4- 26.5- 17.6---
2024-05-22 03:18 pm- 0.0 3.1----1006.5- 27.6- 17.0---
2024-05-22 03:12 pm- 0.0 3.6----1006.4- 28.5- 17.1---
2024-05-22 03:06 pm NW 3.6 5.1----1006.6- 27.1- 17.4---
2024-05-22 03:00 pmNNW 4.6 7.2----1006.6 -1.6 26.5- 17.1---
2024-05-22 02:54 pm NW 4.6 6.2----1006.5- 26.6- 17.2---
2024-05-22 02:48 pm W 3.6 7.2----1006.5- 26.6- 18.1---
2024-05-22 02:42 pm W 4.1 7.7----1006.6- 27.9- 16.7---
2024-05-22 02:36 pm S 4.1 6.2----1006.4- 30.5- 16.7---
2024-05-22 02:30 pmSSW 4.1 7.2----1006.4- 30.4- 16.7---
2024-05-22 02:24 pm S 5.1 7.2----1006.4- 31.3- 16.4---
2024-05-22 02:18 pmSSW 6.2 9.8------------
2024-05-22 02:12 pm S 6.2 9.8------------
2024-05-22 02:06 pm S 5.7 9.3------------
2024-05-22 02:00 pm S 5.7 7.7------------
2024-05-22 01:54 pm S 5.7 7.7------------
2024-05-22 01:48 pmSSW 4.1 8.8------------
2024-05-22 01:42 pm S 5.1 8.8------------
2024-05-22 01:36 pm S 4.6 7.2------------
2024-05-22 01:30 pm S 6.2 7.7----1007.1-------
2024-05-22 01:24 pmSSW 4.1 8.2----1007.2-------
2024-05-22 01:18 pm S 4.1 6.7------------
2024-05-22 01:12 pm S 4.6 7.2------------
2024-05-22 01:06 pm S 4.6 8.2------------
2024-05-22 01:00 pmSSW 5.1 8.8----1007.4 -1.8------
2024-05-22 12:54 pm SW 4.1 9.8----1007.4-------
2024-05-22 12:48 pm S 5.7 7.2------------
2024-05-22 12:42 pm S 3.6 8.8------------
2024-05-22 12:36 pmSSW 6.2 7.2------------
2024-05-22 12:30 pmSSW 4.6 7.7------------
2024-05-22 12:24 pm SW 4.1 8.2------------
2024-05-22 12:18 pm S 4.6 7.7------ 29.9- 16.8---
2024-05-22 12:12 pm S 5.1 6.7------ 29.8- 16.8---
2024-05-22 12:06 pmWSW 5.1 7.2------ 29.6- 17.1---
2024-05-22 12:00 pm S 3.1 4.6----1008.2 -1.2 29.9- 17.4---
2024-05-22 11:54 am S 4.1 6.2----1008.2- 29.3- 17.3---
2024-05-22 11:48 am S 3.6 5.1----1008.3- 29.7- 17.3---
2024-05-22 11:42 am S 4.1 6.2----1008.3- 29.6- 17.1---
2024-05-22 11:36 am S 5.1 6.2----1008.4- 29.0- 16.8---
2024-05-22 11:30 am S 3.6 5.1----1008.5- 29.6- 17.4---
2024-05-22 11:24 am S 4.1 5.7----1008.6- 29.2- 16.9---
2024-05-22 11:18 am S 3.6 5.7----1008.6- 28.8- 17.3---
2024-05-22 11:12 am S 3.6 5.1----1008.7- 29.3- 17.4---
2024-05-22 11:06 am S 4.1 5.7----1008.8- 28.6- 17.0---
2024-05-22 11:00 am S 5.1 7.2----1008.8 -0.9 28.1- 16.9---
2024-05-22 10:54 am S 3.6 6.7----1009.0- 28.1- 16.9---
2024-05-22 10:48 am S 5.1 6.7----1009.1-------
2024-05-22 10:42 am S 3.1 5.7----1009.1-------
2024-05-22 10:36 am S 4.6 7.2----1009.1-------
2024-05-22 10:30 am S 4.6 6.2------------
2024-05-22 10:24 am S 4.6 6.2------------
2024-05-22 10:18 am S 5.1 6.7------------
2024-05-22 10:12 amSSE 4.1 8.8------------
2024-05-22 10:06 am S 5.1 6.7------------
2024-05-22 10:00 am S 4.6 7.7----1009.2 -0.8 27.0- 16.9---
2024-05-22 09:54 am S 5.7 7.2----1009.1- 26.2- 16.6---
2024-05-22 09:48 am S 5.7 7.7----1009.2-------
2024-05-22 09:42 am S 4.6 6.7----1009.2-------
2024-05-22 09:36 am S 4.6 7.2----1009.3-------
2024-05-22 09:30 am S 4.1 6.2------------
2024-05-22 09:24 am S 4.6 6.7------------
2024-05-22 09:18 am S 4.6 7.2----1009.4-------
2024-05-22 09:12 am S 5.7 8.2----1009.3-------
2024-05-22 09:06 am S 5.7 8.2----1009.3-------
2024-05-22 09:00 am S 5.1 7.2----1009.4 -0.6 24.8- 16.2---
2024-05-22 08:54 am S 4.6 7.7----1009.4- 24.6- 16.4---
2024-05-22 08:48 am S 4.6 6.7----1009.5- 24.2- 16.2---
2024-05-22 08:42 am S 4.6 7.2----1009.4- 24.1- 16.2---
2024-05-22 08:36 am S 5.7 6.7----1009.5- 23.7- 16.1---
2024-05-22 08:30 am S 4.1 6.2----1009.7- 23.5- 16.1---
2024-05-22 08:24 am S 5.1 6.2----1009.8- 23.2- 16.0---
2024-05-22 08:18 am S 4.6 7.2----1009.8- 23.0- 15.9---
2024-05-22 08:12 am S 5.1 6.7----1009.8- 22.8- 15.8---
2024-05-22 08:06 amSSE 4.6 6.7----1009.7- 22.7- 15.7---
2024-05-22 08:00 amSSE 4.1 5.7----1009.7 +0.0 22.5- 15.7---
2024-05-22 07:54 amSSE 4.6 6.2----1009.8- 22.2- 15.6---
2024-05-22 07:48 am S 4.1 6.2----1009.8- 22.1- 15.6---
2024-05-22 07:42 am S 3.6 5.1----1009.8- 21.9- 15.4---
2024-05-22 07:36 amSSE 3.6 5.7----1009.8- 21.6- 15.3---
2024-05-22 07:30 am S 3.6 5.1----1009.8- 21.4- 15.2---
2024-05-22 07:24 amSSE 3.6 5.7----1009.9- 21.2- 15.1---
2024-05-22 07:18 am S 4.1 5.7----1009.9- 21.0- 15.0---
2024-05-22 07:12 am S 3.1 5.1----1009.9- 21.0- 15.0---
2024-05-22 07:06 amSSE 3.6 5.1----1009.9- 21.0- 14.9---
2024-05-22 07:00 amSSE 3.6 5.1----1010.0 +0.4 21.0- 14.9---
2024-05-22 06:54 am S 3.1 4.6----1009.9- 20.9- 14.8---
2024-05-22 06:48 amSSE 3.1 4.6----1009.9- 20.8- 14.6---
2024-05-22 06:42 am S 3.1 4.6----1009.9- 21.0- 14.6---
2024-05-22 06:36 am S 3.1 4.1----1010.0- 21.0- 14.4---
2024-05-22 06:30 amSSE 3.6 4.1----1009.9- 21.3- 14.4---
2024-05-22 06:24 am S 3.1 4.1----1009.9- 21.4- 14.4---
2024-05-22 06:18 am S 2.6 4.1----1009.9- 21.4- 14.3---
2024-05-22 06:12 am S 3.1 5.1----1009.9- 21.4- 14.4---
2024-05-22 06:06 am S 4.1 5.7----1010.0- 21.5- 14.4---
2024-05-22 06:00 am S 4.1 5.1----1010.0 +0.9 21.4- 14.5---
2024-05-22 05:54 am S 3.1 4.1----1009.9- 21.4- 14.5---
2024-05-22 05:48 amSSE 3.1 4.1----1009.9- 21.3- 14.4---
2024-05-22 05:42 am S 3.1 4.6----1009.9- 21.4- 14.4---
2024-05-22 05:36 am S 3.6 5.1----1009.9- 21.4- 14.4---
2024-05-22 05:30 am S 4.1 6.2----1009.9- 21.4- 14.5---
2024-05-22 05:24 am S 5.1 6.2----1009.8- 21.5- 14.5---
2024-05-22 05:18 am S 4.6 5.7----1009.8- 21.5- 14.5---
2024-05-22 05:12 am S 4.1 5.7----1009.8- 21.5- 14.4---
2024-05-22 05:06 am S 4.1 5.7----1009.8- 21.5- 14.4---
2024-05-22 05:00 am S 4.1 5.7----1009.8 +0.9 21.6- 14.4---
2024-05-22 04:54 am S 4.6 6.2----1009.8- 21.7- 14.5---
2024-05-22 04:48 am S 4.6 6.2----1009.7- 21.7- 14.6---
2024-05-22 04:42 am S 5.1 6.7----1009.7- 21.6- 14.5---
2024-05-22 04:36 am S 4.1 5.7----1009.7- 21.6- 14.6---
2024-05-22 04:30 am S 4.1 6.7----1009.7- 21.6- 14.5---
2024-05-22 04:24 am S 4.1 5.7----1009.8- 21.6- 14.7---
2024-05-22 04:18 am S 3.6 5.7----1009.7- 21.4- 14.9---
2024-05-22 04:12 am S 4.1 5.7----1009.6- 21.2- 15.1---
2024-05-22 04:06 am S 4.1 5.1----1009.6- 21.1- 15.2---
2024-05-22 04:00 am S 4.1 5.1----1009.6 +0.5 21.1- 15.3---
2024-05-22 03:54 am S 4.1 5.1----1009.5- 21.0- 15.3---
2024-05-22 03:48 am S 3.6 4.6----1009.4- 21.0- 15.5---
2024-05-22 03:42 am S 4.1 4.6----1009.4- 20.8- 15.7---
2024-05-22 03:36 am S 3.6 4.6----1009.3- 20.6- 15.8---
2024-05-22 03:30 am S 4.1 4.6----1009.2- 20.7- 15.8---
2024-05-22 03:24 am S 3.1 4.6----1009.2- 20.6- 16.0---
2024-05-22 03:18 am S 3.6 4.1----1009.1- 20.5- 16.1---
2024-05-22 03:12 am S 3.6 4.6----1009.1- 20.6- 16.1---
2024-05-22 03:06 amSSE 3.6 4.6----1009.0- 20.7- 16.3---
2024-05-22 03:00 amSSE 3.1 4.6----1009.1 +0.0 20.6- 16.4---
2024-05-22 02:54 am S 3.6 4.6----1009.1- 20.6- 16.6---
2024-05-22 02:48 am S 3.6 4.6----1009.1- 20.5- 16.6---
2024-05-22 02:42 amSSE 3.6 5.1----1009.1- 20.6- 16.9---
2024-05-22 02:36 am S 3.6 5.1----1009.0- 20.5- 16.9---
2024-05-22 02:30 am S 3.6 5.1----1009.0- 20.6- 17.1---
2024-05-22 02:24 am S 3.6 4.1----1009.0- 20.4- 17.2---
2024-05-22 02:18 am S 3.1 4.1----1009.1- 20.5- 17.3---
2024-05-22 02:12 am S 3.6 4.1----1009.1- 20.5- 17.5---
2024-05-22 02:06 am S 3.1 4.1----1009.0- 20.3- 17.5---
2024-05-22 02:00 am S 3.6 4.1----1008.9 -0.3 20.3- 17.6---
2024-05-22 01:54 am S 3.1 4.1----1009.0- 20.3- 17.8---
2024-05-22 01:48 am S 3.1 4.1----1009.0- 20.1- 17.7---
2024-05-22 01:42 am S 3.6 4.1----1008.9- 20.1- 17.6---
2024-05-22 01:36 am S 2.1 3.6----1008.9- 20.2- 17.7---
2024-05-22 01:30 amSSE 2.6 3.6----1008.9- 20.3- 17.7---
2024-05-22 01:24 amSSE 2.6 3.6----1009.0- 20.3- 17.7---
2024-05-22 01:18 am S 3.1 3.6----1009.1- 20.2- 17.6---
2024-05-22 01:12 am S 3.1 3.6----1009.2- 20.3- 17.6---
2024-05-22 01:06 amSSE 3.6 4.1----1009.1- 20.4- 17.7---
2024-05-22 01:00 amSSE 3.1 4.1----1009.1 -0.3 20.4- 17.6---
2024-05-22 12:54 am S 2.6 3.6----1009.2- 20.4- 17.6---
2024-05-22 12:48 amSSE 2.6 4.1----1009.1- 20.5- 17.6---
2024-05-22 12:42 amSSE 3.1 4.1----1009.2- 20.6- 17.6---
2024-05-22 12:36 am S 2.6 3.6----1009.2- 20.7- 17.6---
2024-05-22 12:30 amSSE 2.6 3.6----1009.1- 20.7- 17.6---
2024-05-22 12:24 am S 2.6 3.6----1009.2- 20.8- 17.6---
2024-05-22 12:18 am S 2.6 3.6----1009.2- 20.8- 17.6---
2024-05-22 12:12 amSSE 3.1 5.1----1009.2- 20.8- 17.5---
2024-05-22 12:06 amSSE 5.1 6.7----1009.2- 21.0- 17.6---
2024-05-22 12:00 amSSE 5.1 6.7----1009.2 +0.4 21.1- 17.6---
2024-05-21 11:54 pmSSE 4.1 6.2----1009.1- 20.9- 17.6---
2024-05-21 11:48 pmSSE 4.1 5.7----1009.2- 21.0- 17.6---
2024-05-21 11:42 pmSSE 4.6 6.7----1009.1- 21.0- 17.7---
2024-05-21 11:36 pmSSE 5.1 6.7----1009.2- 21.0- 17.8---
2024-05-21 11:30 pmSSE 4.6 6.2----1009.1- 21.1- 18.0---
2024-05-21 11:24 pmSSE 5.1 7.2----1009.2- 21.0- 18.1---
2024-05-21 11:18 pmSSE 4.6 6.2----1009.1- 21.0- 18.2---
2024-05-21 11:12 pmSSE 4.6 6.7----1009.1- 21.0- 18.3---
2024-05-21 11:06 pmSSE 4.6 6.2----1009.1- 21.0- 18.4---
2024-05-21 11:00 pmSSE 4.6 6.2----1009.2 +0.8 21.0- 18.5---
2024-05-21 10:54 pmSSE 5.1 6.7----1009.1- 21.0- 18.5---
2024-05-21 10:48 pmSSE 4.6 6.7----1009.1- 21.1- 18.6---
2024-05-21 10:42 pmSSE 5.1 6.7----1009.2- 21.2- 18.7---
2024-05-21 10:36 pmSSE 5.7 6.7----1009.2- 21.2- 18.7---
2024-05-21 10:30 pmSSE 5.7 7.2----1009.2- 21.3- 18.7---
2024-05-21 10:24 pmSSE 4.1 6.7----1009.3- 21.3- 18.8---
2024-05-21 10:18 pmSSE 5.7 7.2----1009.3- 21.4- 18.8---
2024-05-21 10:12 pmSSE 5.7 7.7----1009.3- 21.5- 18.9---
2024-05-21 10:06 pmSSE 5.1 6.7----1009.3- 21.6- 19.0---
2024-05-21 10:00 pmSSE 4.6 6.7----1009.4 +0.4 21.6- 19.0---
2024-05-21 09:54 pmSSE 5.1 7.2----1009.3- 21.7- 19.1---
2024-05-21 09:48 pmSSE 4.6 6.2----1009.3- 21.7- 19.1---
2024-05-21 09:42 pmSSE 4.6 5.7----1009.2- 21.8- 19.1---
2024-05-21 09:36 pmSSE 4.1 6.2----1009.2- 21.8- 19.2---
2024-05-21 09:30 pmSSE 4.1 5.1----1009.1- 21.8- 19.1---
2024-05-21 09:24 pmSSE 4.1 6.2----1009.1- 22.1- 19.2---
2024-05-21 09:18 pmSSE 4.1 6.7----1009.0- 22.2- 19.1---
2024-05-21 09:12 pmSSE 3.6 5.1----1008.9- 22.4- 19.2---
2024-05-21 09:06 pmSSE 3.6 6.2----1008.9- 22.4- 19.2---
2024-05-21 09:00 pmSSE 4.1 5.7----1008.8 -1.5 22.3- 19.2---
2024-05-21 08:54 pmSSE 4.6 6.2----1008.8- 22.2- 19.2---
2024-05-21 08:48 pmSSE 3.1 4.1----1008.8- 22.3- 19.2---
2024-05-21 08:42 pm S 3.1 3.6----1008.8- 22.3- 19.2---
2024-05-21 08:36 pm S 2.6 4.1----1008.7- 22.6- 19.1---
2024-05-21 08:30 pmSSE 2.6 3.6----1008.6- 22.6- 19.3---
2024-05-21 08:24 pm S 2.6 3.1----1008.6- 22.7- 19.2---
2024-05-21 08:18 pm S 3.1 4.1----1008.6- 22.6- 19.2---
2024-05-21 08:12 pm S 2.6 3.6----1008.5- 22.8- 19.3---
2024-05-21 08:06 pm S 2.6 3.6----1008.4- 22.9- 19.1---
2024-05-21 08:00 pmSSE 2.1 3.1----1008.4 -0.9 23.5- 18.9---
2024-05-21 07:54 pmSSE 2.1 3.6----1008.4- 23.8- 18.8---